Location: Zagreb
(45.8000°N, 16.0000°E)
Time: 17:55:48
(UTC+02:00)

SR - Pass Details

Date: 18 August 2020
Orbit: 583 x 873 km, 66.7° (Epoch: 28 September)

Event Time Altitude Azimuth Distance (km) Brightness Sun altitude
Rises 22:33:34 0° 269° (W) 2,878 ? -22.9°
Reaches altitude 10° 22:37:08 10° 299° (WNW) 1,938 ? -23.2°
Maximum altitude 22:39:01 13° 325° (NW) 1,761 ? -23.4°
Drops below altitude 10° 22:40:55 10° 352° (N) 1,917 ? -23.6°
Sets 22:44:24 0° 22° (NNE) 2,815 ? -24.0°
